[[{"header":{"parameterUnit":"m.s-1","parameterCategory":1,"la1":30.2991,"la2":30.254,"lo1":-89.0895,"lo2":-89.0444,"dy":0.0017,"dx":0.0017,"nx":28,"ny":28,"refTime":"2025-01-30T03:00:00:Z","depth":0,"parameterNumber":2,"parameterNumberName":"U-component_of_WINDS"},"data":[0,0,0,0,0,0,0,0,0,0,0,0,0,0,0,0,0,0,0,0,0,0,0,0,0,0,0,0,0,0,0,0,0,0,0,0,0,0,0,0,0,0,0,0,0,0,0,0,0,0,0,0,0,0,0,0,0,0,-1.4619,-1.4618,0,-1.4543,-1.4542,-1.4541,-1.446,-1.4459,-1.4458,-1.4457,-1.4378,-1.4377,-1.4376,0,0,0,0,0,0,0,0,0,0,0,0,0,-1.4695,-1.4694,-1.4619,-1.4618,-1.4617,-1.4543,-1.4542,-1.4541,-1.4461,-1.4459,-1.4458,-1.4457,-1.4379,-1.4377,-1.4376,0,0,0,0,0,0,0,0,0,0,0,0,0,-1.4645,-1.4694,-1.4619,-1.4568,-1.4563,-1.4543,-1.4542,-1.454,-1.4461,-1.4459,-1.4457,-1.4456,-1.4379,-1.4378,-1.4376,-1.44,0,0,-1.4371,-1.437,0,0,0,0,0,0,0,0,-1.4648,-1.4642,-1.4576,-1.4571,-1.4565,-1.4509,-1.454,-1.4493,-1.4461,-1.4499,-1.4457,-1.4455,-1.4423,-1.4418,-1.4407,-1.4396,-1.4393,-1.4371,-1.437,-1.4369,-1.4369,0,0,0,0,0,0,0,-1.4652,-1.4645,-1.4588,-1.4576,-1.4569,-1.4549,-1.454,-1.4531,-1.4472,-1.4496,-1.449,-1.4482,-1.442,-1.4409,-1.4405,-1.4392,-1.4371,-1.437,-1.4369,-1.4368,-1.4399,-1.4401,0,0,0,0,0,0,-1.4663,-1.4649,-1.4591,-1.4586,-1.4603,-1.4549,-1.4539,-1.4529,-1.4472,-1.4461,-1.4484,-1.4479,-1.4412,-1.4407,-1.4402,-1.4427,-1.4369,-1.4368,-1.4367,-1.4397,-1.4399,-1.4401,0,0,0,0,0,0,-1.4665,-1.4658,-1.4594,-1.4616,-1.4606,-1.455,-1.4539,-1.4528,-1.4517,-1.4462,-1.4451,-1.4483,-1.4411,-1.4404,-1.4402,-1.4423,-1.4367,-1.4366,-1.4395,-1.4398,-1.44,-1.4477,0,0,0,0,0,0,-1.4667,-1.466,-1.4668,-1.4617,-1.4605,-1.4595,-1.454,-1.4528,-1.4515,-1.4508,-1.4459,-1.4449,-1.4409,-1.4404,-1.44,-1.442,-1.4365,-1.4393,-1.4396,-1.4399,-1.4473,-1.4482,-1.4491,0,0,0,0,0,-1.467,-1.4692,-1.4669,-1.4662,-1.4614,-1.4596,-1.459,-1.4543,-1.4517,-1.4525,-1.449,-1.4451,-1.4422,-1.4405,-1.4399,-1.4419,-1.4391,-1.4395,-1.4399,-1.4469,-1.448,-1.449,0,0,0,0,0,0,-1.4746,-1.4684,-1.4657,-1.4663,-1.4636,-1.4583,-1.4591,-1.4557,-1.4536,-1.453,-1.4473,-1.4463,-1.4468,-1.4443,-1.4425,-1.444,-1.4401,-1.4404,-1.4456,-1.4467,-1.4476,-1.4481,-1.4363,0,0,0,0,0,-1.4764,-1.4754,-1.4701,-1.4711,-1.4699,-1.4648,-1.4638,-1.4605,-1.4574,-1.4562,-1.4526,-1.4498,-1.4483,-1.4473,-1.4456,-1.4469,-1.4458,-1.448,-1.449,-1.4497,-1.45,-1.4507,-1.4516,-1.4414,-1.4414,-1.4414,0,0,-1.4799,-1.4764,-1.4762,-1.4725,-1.47,-1.4692,-1.4638,-1.4631,-1.4625,-1.4561,-1.4556,-1.453,-1.4495,-1.4501,-1.4502,-1.448,-1.4526,-1.4502,-1.4509,-1.4507,-1.4512,-1.4522,-1.453,-1.4417,-1.4416,-1.4416,0,0,-1.486,-1.4833,-1.4839,-1.4815,-1.4778,-1.4745,-1.4747,-1.4699,-1.468,-1.4675,-1.4627,-1.4619,-1.4593,-1.457,-1.4555,-1.4611,-1.4574,-1.4607,-1.4653,-1.4661,-1.4669,-1.4676,-1.4696,-1.4704,-1.461,-1.4611,-1.4611,0,-1.4909,-1.4894,-1.4846,-1.4843,-1.4829,-1.4772,-1.4778,-1.4757,-1.4717,-1.4708,-1.4686,-1.4654,-1.4626,-1.4626,-1.464,-1.463,-1.4631,-1.4611,-1.4672,-1.4678,-1.4684,-1.4702,-1.471,-1.4615,-1.4614,-1.4614,-1.4613,0,-1.4957,-1.4948,-1.4957,-1.4921,-1.4908,-1.491,-1.4862,-1.4855,-1.4824,-1.4793,-1.479,-1.4755,-1.473,-1.4728,-1.4697,-1.4725,-1.4713,-1.4682,-1.4641,-1.4698,-1.4715,-1.4722,-1.4621,-1.4619,-1.4618,-1.4617,0,0,-1.506,-1.4999,-1.5003,-1.4987,-1.4943,-1.4936,-1.4936,-1.4912,-1.4908,-1.4883,-1.4881,-1.4862,-1.4834,-1.4817,-1.4783,-1.479,-1.4838,-1.4758,-1.4756,-1.4774,-1.4867,-1.4891,-1.49,-1.4814,-1.4815,-1.4816,-1.487,0,-1.5114,-1.511,-1.5067,-1.5076,-1.5068,-1.5015,-1.5015,-1.4989,-1.4961,-1.495,-1.4919,-1.4907,-1.487,-1.486,-1.4864,-1.4831,-1.4856,-1.4827,-1.4812,-1.4812,-1.4822,-1.4908,-1.4933,-1.4985,-1.4877,-1.4878,-1.4878,0,-1.5174,-1.5154,-1.5162,-1.512,-1.5115,-1.5116,-1.5092,-1.5083,-1.5053,-1.5032,-1.5015,-1.4978,-1.4976,-1.4939,-1.4935,-1.4917,-1.4909,-1.4892,-1.4893,-1.4889,-1.4848,-1.4907,-1.5001,-1.5009,-1.4888,-1.4887,-1.4887,0,-1.5249,-1.5224,-1.5226,-1.5213,-1.5165,-1.5167,-1.5147,-1.5115,-1.5105,-1.5084,-1.5077,-1.5057,-1.5045,-1.5031,-1.4989,-1.4966,-1.4991,-1.495,-1.4974,-1.4975,-1.4981,-1.4981,-1.5075,-1.4977,-1.4977,-1.4977,-1.4976,0,-1.5313,-1.532,-1.5259,-1.526,-1.5267,-1.522,-1.5228,-1.5202,-1.5175,-1.5171,-1.5124,-1.5122,-1.5067,-1.5059,-1.5027,-1.5029,-1.5024,-1.5008,-1.4999,-1.5012,-1.5014,-1.5005,-1.5,-1.4979,-1.4978,-1.4978,-1.4977,0,-1.5397,-1.5357,-1.5356,-1.5311,-1.53,-1.5307,-1.5268,-1.5268,-1.5238,-1.5234,-1.523,-1.5183,-1.5171,-1.5129,-1.5106,-1.5084,-1.5097,-1.508,-1.5107,-1.5101,-1.5128,-1.5126,-1.5219,-1.5229,-1.5125,-1.5126,-1.5127,0,-1.5439,-1.5444,-1.54,-1.5394,-1.5377,-1.5368,-1.5357,-1.5311,-1.5302,-1.527,-1.5274,-1.5258,-1.5242,-1.5225,-1.519,-1.5172,-1.5155,-1.5189,-1.5152,-1.5165,-1.5155,-1.5155,-1.5156,-1.5196,-1.5198,-1.5199,-1.52,0,-1.5519,-1.55,-1.5487,-1.5468,-1.5457,-1.5439,-1.5419,-1.5417,-1.5366,-1.5358,-1.5345,-1.5334,-1.5311,-1.5297,-1.5274,-1.5253,-1.5219,-1.5212,-1.5217,-1.5229,-1.5245,-1.5237,-1.5129,-1.521,-1.5209,-1.5208,-1.5207,-1.5207,-1.5584,-1.5586,-1.5556,-1.5544,-1.5524,-1.5507,-1.5505,-1.5476,-1.5464,-1.5443,-1.5417,-1.5408,-1.5379,-1.5346,-1.5328,-1.5321,-1.5301,-1.5308,-1.5309,-1.5312,-1.5318,-1.5247,-1.5316,-1.5316,-1.5316,-1.5315,-1.5315,0,-1.5661,-1.564,-1.5629,-1.5603,-1.5594,-1.5563,-1.554,-1.5534,-1.5527,-1.5504,-1.549,-1.5477,-1.5463,-1.5427,-1.541,-1.5411,-1.5395,-1.5408,-1.5407,-1.5403,-1.5336,-1.5334,-1.5422,-1.5422,-1.5422,-1.5422,-1.5422,-1.5422,-1.57,-1.5703,-1.5681,-1.5673,-1.5652,-1.5643,-1.5633,-1.5617,-1.5599,-1.5586,-1.5574,-1.5552,-1.5524,-1.5505,-1.5491,-1.5481,-1.5477,-1.5496,-1.5481,-1.5418,-1.5408,-1.5398,-1.5396,-1.5495,-1.5495,-1.5548,-1.5549,-1.5549]},{"header":{"parameterUnit":"m.s-1","parameterCategory":1,"la1":30.2991,"la2":30.254,"lo1":-89.0895,"lo2":-89.0444,"dy":0.0017,"dx":0.0017,"nx":28,"ny":28,"refTime":"2025-01-30T03:00:00:Z","depth":0,"parameterNumber":3,"parameterNumberName":"V-component_of_WINDS"},"data":[0,0,0,0,0,0,0,0,0,0,0,0,0,0,0,0,0,0,0,0,0,0,0,0,0,0,0,0,0,0,0,0,0,0,0,0,0,0,0,0,0,0,0,0,0,0,0,0,0,0,0,0,0,0,0,0,0,0,1.249,1.2491,0,1.2525,1.2525,1.2525,1.2594,1.2596,1.2597,1.2598,1.263,1.263,1.2629,0,0,0,0,0,0,0,0,0,0,0,0,0,1.2481,1.2481,1.249,1.2491,1.2491,1.2525,1.2525,1.2525,1.2594,1.2596,1.2598,1.2599,1.263,1.263,1.2629,0,0,0,0,0,0,0,0,0,0,0,0,0,1.2497,1.2481,1.249,1.2529,1.2533,1.2524,1.2525,1.2526,1.2594,1.2596,1.2598,1.26,1.263,1.263,1.2629,1.2584,0,0,1.2627,1.2627,0,0,0,0,0,0,0,0,1.2496,1.2497,1.2523,1.2527,1.2531,1.2557,1.2534,1.2545,1.2593,1.2571,1.2598,1.2601,1.2604,1.2606,1.2607,1.2585,1.2586,1.2627,1.2627,1.2626,1.2626,0,0,0,0,0,0,0,1.2495,1.2496,1.2504,1.2523,1.2528,1.2544,1.2549,1.2536,1.2575,1.2573,1.2578,1.2581,1.2606,1.2608,1.2609,1.2587,1.2627,1.2626,1.2626,1.2626,1.2529,1.2527,0,0,0,0,0,0,1.2489,1.2495,1.2503,1.2505,1.2518,1.2543,1.2548,1.2547,1.2576,1.2582,1.2579,1.2584,1.2608,1.2609,1.261,1.2558,1.2626,1.2626,1.2625,1.2531,1.2528,1.2526,0,0,0,0,0,0,1.2488,1.2489,1.2501,1.2501,1.2504,1.2541,1.2539,1.2546,1.2548,1.2581,1.2588,1.2574,1.261,1.2611,1.259,1.256,1.2625,1.2625,1.2533,1.253,1.2527,1.2454,0,0,0,0,0,0,1.2488,1.2488,1.2472,1.25,1.2504,1.2481,1.2537,1.2546,1.2547,1.2554,1.2577,1.2583,1.2611,1.259,1.2589,1.256,1.2624,1.2536,1.2532,1.2528,1.2459,1.2449,1.244,0,0,0,0,0,1.2487,1.2449,1.247,1.2471,1.2484,1.2479,1.2481,1.2515,1.2544,1.2528,1.2549,1.2582,1.2564,1.2588,1.2587,1.2557,1.2538,1.2533,1.2528,1.2463,1.2451,1.244,0,0,0,0,0,0,1.2414,1.2453,1.2478,1.2448,1.246,1.2491,1.2471,1.2501,1.2504,1.251,1.2552,1.2556,1.2529,1.2542,1.2567,1.2515,1.2556,1.2551,1.2507,1.2495,1.2486,1.2483,1.2624,0,0,0,0,0,1.2395,1.2389,1.2423,1.2393,1.2398,1.2433,1.2432,1.2458,1.2472,1.2477,1.2496,1.2507,1.2504,1.2501,1.25,1.2462,1.2467,1.2441,1.2432,1.2423,1.2418,1.2398,1.2386,1.251,1.251,1.251,0,0,1.2355,1.2375,1.2368,1.2379,1.2392,1.2383,1.2437,1.2426,1.2419,1.2475,1.2456,1.2471,1.2486,1.2456,1.2444,1.2465,1.2385,1.2417,1.241,1.2409,1.2392,1.238,1.2369,1.2506,1.2507,1.2508,0,0,1.2276,1.2292,1.2269,1.228,1.2299,1.2323,1.2317,1.2344,1.2356,1.2339,1.238,1.2373,1.2366,1.2375,1.2379,1.2305,1.2335,1.2303,1.2251,1.2232,1.2222,1.2213,1.2186,1.2176,1.2298,1.2298,1.2298,0,1.2223,1.2213,1.2253,1.2239,1.2242,1.2294,1.227,1.2279,1.2295,1.2296,1.232,1.2314,1.2327,1.23,1.2282,1.2284,1.2278,1.23,1.222,1.2212,1.2205,1.2179,1.2169,1.2294,1.2294,1.2295,1.2295,0,1.2146,1.2139,1.2118,1.2133,1.2135,1.2116,1.2152,1.2148,1.2174,1.2195,1.2176,1.2195,1.2198,1.2194,1.2218,1.217,1.2182,1.2213,1.2255,1.2188,1.2165,1.2155,1.2288,1.2289,1.229,1.2292,0,0,1.2021,1.2061,1.2052,1.206,1.2085,1.2079,1.2062,1.2067,1.2062,1.2072,1.2058,1.2053,1.2081,1.2085,1.2112,1.2095,1.2034,1.2127,1.2128,1.2108,1.198,1.1955,1.1943,1.2055,1.2053,1.2052,1.1978,0,1.1947,1.1922,1.1958,1.1924,1.1917,1.1966,1.1952,1.1964,1.1984,1.198,1.2001,1.1996,1.2035,1.2038,1.2023,1.2044,1.2008,1.205,1.2041,1.204,1.2034,1.1931,1.1905,1.1835,1.1969,1.1968,1.1967,0,1.1857,1.1864,1.1829,1.1856,1.1855,1.1841,1.1848,1.1844,1.186,1.1875,1.188,1.1912,1.1897,1.194,1.1918,1.1946,1.1945,1.1955,1.1953,1.1952,1.1998,1.1926,1.1813,1.1802,1.1953,1.1954,1.1955,0,1.1767,1.1768,1.1748,1.1753,1.1784,1.1773,1.1786,1.1804,1.1804,1.181,1.1811,1.1815,1.1816,1.1818,1.185,1.1878,1.1824,1.187,1.1835,1.1834,1.182,1.182,1.1704,1.1822,1.1822,1.1822,1.1822,0,1.168,1.1656,1.1708,1.1695,1.167,1.1712,1.1686,1.1703,1.1719,1.1709,1.1752,1.1742,1.1786,1.1781,1.1805,1.1783,1.1784,1.1795,1.1802,1.179,1.1788,1.1788,1.1793,1.1819,1.182,1.182,1.1821,0,1.1575,1.1608,1.1589,1.1621,1.1629,1.1609,1.1635,1.1624,1.1648,1.1635,1.1634,1.167,1.1666,1.1698,1.17,1.1717,1.1682,1.1698,1.1677,1.1681,1.1644,1.1647,1.1522,1.1508,1.1636,1.1635,1.1634,0,1.1516,1.1499,1.153,1.1527,1.1538,1.1533,1.1534,1.1575,1.1574,1.1591,1.1577,1.1577,1.1579,1.157,1.1595,1.1596,1.1611,1.1568,1.1611,1.16,1.1609,1.1609,1.1607,1.1558,1.1556,1.1555,1.1554,0,1.1407,1.1425,1.1425,1.1432,1.1432,1.1439,1.1448,1.1443,1.1487,1.1484,1.1481,1.1483,1.1485,1.1484,1.149,1.1502,1.1534,1.154,1.1532,1.1519,1.1507,1.1512,1.165,1.1542,1.1543,1.1544,1.1545,1.1545,1.1322,1.131,1.1329,1.1328,1.134,1.1348,1.1339,1.1362,1.136,1.1366,1.139,1.1383,1.1399,1.1411,1.142,1.1414,1.1435,1.1423,1.142,1.1416,1.1409,1.151,1.1415,1.1416,1.1416,1.1417,1.1417,0,1.1214,1.123,1.1229,1.1241,1.1241,1.1274,1.1286,1.1282,1.1276,1.1289,1.129,1.1286,1.1285,1.1311,1.1313,1.1303,1.1318,1.1302,1.1302,1.1304,1.1391,1.1397,1.129,1.129,1.129,1.129,1.129,1.129,1.1158,1.1138,1.1159,1.1145,1.1161,1.1155,1.1159,1.1166,1.1177,1.1171,1.1171,1.1188,1.1206,1.121,1.121,1.1218,1.1216,1.1195,1.1207,1.1286,1.1298,1.131,1.1316,1.1194,1.1194,1.1121,1.112,1.112]}]]